Wind_Speed
35 34 35 35 36 36 37 37 36 35 33 30 28 27 26 25 25 24 23 21 21 20 18 17 17 18 20 20 20 18 16 16 17 18 19 19 20 20 20 20 18 16 16 16
37 37 37 37 38 38 38 38 37 37 35 33 31 30 29 28 27 26 25 23 22 21 21 20 20 20 21 21 21 20 19 18 18 19 21 21 22 22 21 20 19 18 18 18
40 39 40 41 40 40 40 39 39 39 38 36 35 33 33 31 30 30 28 27 25 25 24 23 23 22 22 22 22 23 22 21 20 21 22 23 23 22 22 21 21 20 20 20
41 41 43 41 41 41 41 41 41 41 40 39 37 36 34 33 32 32 31 30 29 28 27 27 27 26 25 25 25 25 25 25 24 24 25 25 25 24 24 24 23 23 23 22
42 42 43 42 41 41 41 42 41 40 40 40 39 37 37 36 35 34 33 32 31 31 30 29 30 30 29 29 28 28 28 28 28 28 27 27 26 26 26 27 26 25 25 25
41 42 43 42 41 41 41 42 42 41 40 40 40 39 37 37 37 37 36 36 35 34 33 33 32 32 32 31 31 31 30 30 31 30 29 28 28 28 29 29 28 27 27 27
41 42 43 42 42 41 42 42 41 41 41 40 40 39 38 37 38 39 39 38 37 36 36 36 36 36 35 34 33 33 34 35 33 32 31 30 30 29 30 30 30 30 29 29
42 42 42 42 42 43 42 42 42 42 42 42 41 40 39 39 39 39 40 39 38 39 39 39 39 37 36 36 36 37 38 37 34 34 34 33 31 31 32 32 31 31 32 31
42 42 42 42 43 43 43 43 43 43 43 43 43 43 42 42 41 40 41 40 40 41 41 42 41 39 37 37 38 39 40 39 39 37 35 34 33 33 33 34 33 34 34 33
41 41 42 42 43 43 44 44 44 45 44 44 44 44 44 45 44 43 42 43 43 43 44 45 44 42 40 40 39 40 41 41 40 38 36 36 35 34 35 35 35 36 35 34
40 41 42 41 42 43 43 44 44 45 45 46 46 46 45 45 46 46 45 45 45 46 46 46 44 43 43 43 43 42 41 40 39 39 36 35 36 37 35 35 35 36 35 34
38 39 40 40 41 42 43 43 44 44 45 45 45 45 45 45 45 46 47 47 46 46 47 47 45 43 43 44 43 42 41 40 38 37 36 36 37 37 37 35 35 35 35 35
38 38 39 39 39 40 41 42 42 43 43 44 45 45 45 45 46 46 46 46 46 45 44 44 44 45 45 45 44 43 42 40 39 39 38 38 38 37 37 36 34 35 35 36
36 37 37 37 38 39 39 39 39 40 41 41 43 44 45 45 46 46 45 45 44 43 44 45 45 45 44 45 45 44 42 40 41 40 40 39 38 37 37 37 36 36 37 37
34 35 35 35 35 36 37 36 37 37 37 38 39 41 42 43 45 44 43 44 44 44 44 44 45 44 44 45 44 43 41 40 41 41 41 40 39 39 38 38 37 37 37 37
31 32 33 33 33 34 35 35 35 35 35 36 37 39 40 42 43 43 43 43 42 43 44 44 44 44 43 42 41 41 41 40 40 40 40 39 39 38 37 37 37 37 37 37
29 30 31 31 30 31 32 33 33 33 33 34 35 36 38 39 38 39 39 36 36 39 40 40 40 40 41 41 40 40 40 40 40 39 39 39 39 40 39 39 38 37 37 37
26 27 27 28 28 28 28 30 30 30 30 30 31 31 32 34 35 35 35 35 34 35 35 35 34 35 36 37 37 37 36 36 37 38 39 40 40 40 39 38 37 37 37 38
22 23 24 25 26 26 26 27 27 27 27 26 25 26 27 28 30 31 30 30 31 31 31 31 32 33 34 35 37 36 36 36 37 37 38 38 37 37 37 37 37 37 36 37
18 20 21 22 23 24 24 24 24 24 24 24 24 24 25 26 26 26 27 28 29 29 30 31 32 33 32 32 33 34 35 35 36 36 36 36 36 36 36 35 35 35 35 35
16 16 17 18 20 21 21 22 22 23 24 24 23 24 23 23 25 26 27 27 27 29 29 30 29 30 30 31 32 32 33 34 34 34 34 34 34 34 34 33 34 35 35 35
14 14 14 15 17 18 19 20 21 22 22 22 23 23 22 22 23 24 25 26 27 28 28 28 28 28 29 30 31 31 32 32 32 32 32 32 32 33 33 33 33 33 32 33
11 12 13 14 15 16 17 18 19 19 19 19 20 21 22 23 23 24 24 24 25 25 25 25 25 26 27 28 28 28 28 29 29 30 30 30 31 30 30 30 30 30 30 30
10 11 12 13 13 13 14 14 15 15 15 16 17 18 19 20 21 22 22 22 23 24 24 23 24 24 24 24 24 25 25 26 26 27 28 29 29 29 29 29 29 29 29 29
9 10 11 11 11 12 11 11 11 12 13 13 14 15 16 17 17 18 19 20 21 21 21 21 22 22 22 23 22 23 24 24 24 25 26 26 27 27 27 27 28 28 29 29
10 11 11 11 11 11 11 11 11 12 12 12 13 14 14 15 15 16 17 17 18 18 19 19 20 20 20 21 22 22 22 23 23 23 24 25 25 26 27 27 28 28 29 29
10 11 11 12 11 11 11 11 11 12 11 12 12 12 13 13 14 14 15 15 15 16 17 18 18 18 19 19 20 20 20 21 22 23 23 24 25 26 27 27 28 28 28 29
Wind_Direction
240 239 238 238 239 240 243 245 249 251 253 253 254 255 253 254 256 259 258 260 263 268 273 278 285 292 297 297 299 299 300 302 304 303 306 309 311 308 311 314 316 317 319 321
242 241 241 240 240 241 243 246 249 250 252 253 254 254 253 254 256 258 256 256 260 264 267 274 281 286 291 294 295 296 297 299 300 301 302 305 305 305 303 306 308 310 311 313
245 244 244 244 243 244 246 248 249 251 252 252 253 254 254 255 255 255 255 257 259 262 266 273 278 282 286 289 291 294 292 293 294 296 299 302 304 304 301 301 302 304 305 306
248 247 247 248 247 248 249 250 251 252 252 253 254 253 253 253 253 254 255 256 259 260 265 271 275 277 280 284 288 290 290 290 289 292 295 296 298 299 298 298 299 300 301 301
247 248 249 248 248 249 250 250 251 252 253 253 253 254 252 251 252 253 253 255 258 260 262 267 272 275 278 281 284 287 287 286 287 288 291 293 292 293 293 294 295 296 297 300
247 248 249 249 250 251 252 252 251 252 252 252 252 253 253 253 252 252 252 254 256 259 261 264 269 271 274 278 282 283 283 284 283 284 287 289 291 291 291 292 292 292 294 296
248 250 250 250 250 251 252 253 253 253 253 251 250 251 251 251 252 251 253 254 256 258 260 264 267 268 271 276 280 282 282 284 282 283 283 284 287 289 289 290 290 291 291 293
249 250 251 251 251 252 253 253 253 253 254 253 251 251 252 252 252 252 252 254 255 257 260 262 265 267 269 275 277 278 281 281 280 281 280 280 283 287 288 289 291 291 291 292
249 251 253 252 253 253 254 253 253 254 255 253 251 251 252 253 252 252 252 253 255 258 258 260 261 263 266 271 274 276 279 280 281 280 280 281 282 284 286 288 289 291 291 290
249 250 252 254 254 254 255 256 254 254 254 253 253 252 253 253 253 253 254 254 254 256 258 259 260 262 265 268 270 273 275 277 279 281 282 281 281 282 284 287 288 290 290 289
250 251 252 254 256 256 256 257 256 255 255 255 255 255 254 253 253 253 253 255 255 256 257 256 260 263 266 268 271 273 275 279 280 282 283 283 282 283 284 287 289 290 290 291
251 253 254 255 257 258 258 258 258 257 256 257 257 257 255 255 256 255 255 256 257 259 259 260 261 264 265 269 270 272 276 281 281 281 282 284 286 285 286 287 287 287 289 290
252 254 255 256 257 259 260 259 259 258 258 258 257 256 256 256 255 256 256 256 256 256 258 259 259 262 264 267 269 271 274 277 278 281 283 283 284 285 283 284 285 286 288 289
255 255 256 257 258 259 261 260 260 260 259 258 258 257 257 257 256 256 255 254 254 254 257 259 259 260 263 266 268 270 272 273 276 279 281 280 281 282 282 282 283 285 285 286
255 256 257 257 258 259 260 261 261 261 260 258 258 259 259 259 258 256 254 255 256 255 257 259 259 259 262 266 267 269 272 274 276 278 278 278 280 283 284 282 282 284 284 284
257 258 259 259 258 258 260 262 263 262 261 259 259 260 261 260 257 255 255 255 255 256 257 259 261 261 263 264 265 268 272 274 275 275 276 279 281 282 283 282 281 281 282 284
259 259 258 258 259 260 261 262 261 263 263 259 258 259 258 258 258 256 253 253 256 256 257 259 261 260 261 263 265 267 268 270 273 275 277 279 280 282 283 284 282 281 283 285
259 258 259 259 260 262 263 262 264 264 263 260 257 255 257 258 256 253 256 258 260 260 260 260 259 259 259 262 265 265 268 272 273 274 276 278 280 281 281 282 282 282 284 285
260 258 259 258 258 261 263 264 265 265 265 262 259 259 258 258 257 255 255 258 261 262 260 259 260 261 262 264 266 268 269 271 272 274 275 277 277 278 279 279 281 283 284 284
261 258 258 259 260 264 263 263 263 264 264 262 260 260 260 259 258 257 258 260 260 260 261 263 263 262 263 266 268 268 269 270 272 273 274 274 275 275 277 280 281 282 284 285
260 260 259 261 262 265 265 264 264 264 262 260 258 256 258 258 257 258 260 261 261 261 263 266 267 267 266 268 270 269 269 271 272 272 273 274 276 278 280 281 282 283 284 286
268 264 264 264 265 268 268 265 266 266 263 260 258 258 258 260 259 258 259 261 263 264 265 267 269 270 268 269 270 272 273 273 273 274 275 276 278 280 281 282 283 283 284 286
274 270 267 269 270 270 269 268 269 268 266 263 261 259 259 260 261 262 263 264 266 267 267 268 271 271 272 273 274 276 276 275 275 277 278 279 281 283 284 285 283 284 286 287
275 278 277 276 274 275 274 272 270 269 266 263 263 263 262 262 262 262 262 264 267 268 270 271 272 271 271 273 274 276 277 277 277 279 281 282 283 284 285 285 285 285 286 288
274 277 279 281 282 281 278 276 275 273 273 272 268 264 264 265 265 265 266 268 270 270 270 270 270 270 271 272 274 275 276 275 276 278 280 281 281 283 284 285 285 286 288 290
278 278 279 281 282 282 281 280 278 276 274 272 269 265 264 266 267 267 267 269 269 269 270 272 274 274 275 276 276 276 277 277 277 280 282 283 284 285 287 288 289 290 291 292
281 283 281 281 281 281 281 281 280 278 276 275 273 270 267 266 267 270 271 273 273 273 273 274 275 277 278 280 279 280 282 282 283 285 287 289 290 290 290 290 292 292 293 294
Height
5848 5852 5855 5858 5862 5864 5867 5869 5872 5875 5877 5881 5883 5885 5887 5889 5890 5891 5892 5893 5894 5894 5895 5895 5895 5894 5893 5891 5890 5889 5888 5887 5885 5883 5882 5881 5879 5877 5875 5874 5872 5870 5868 5866
5840 5843 5846 5850 5853 5856 5859 5861 5864 5867 5870 5873 5875 5878 5880 5882 5883 5885 5886 5887 5888 5889 5889 5889 5889 5889 5888 5887 5886 5885 5884 5882 5880 5879 5878 5877 5875 5873 5872 5870 5867 5866 5864 5862
5831 5835 5837 5841 5845 5847 5850 5853 5856 5858 5862 5865 5867 5870 5872 5875 5876 5877 5879 5880 5881 5882 5883 5883 5883 5883 5882 5882 5880 5879 5878 5877 5876 5875 5873 5872 5869 5868 5866 5864 5863 5861 5859 5858
5821 5825 5828 5834 5836 5838 5841 5844 5846 5849 5852 5855 5858 5861 5864 5866 5868 5869 5871 5873 5874 5875 5875 5876 5876 5876 5875 5874 5874 5872 5871 5870 5869 5868 5867 5865 5863 5862 5860 5858 5857 5855 5854 5852
5811 5814 5818 5823 5826 5828 5831 5834 5837 5840 5842 5845 5848 5851 5854 5856 5858 5860 5862 5864 5865 5867 5867 5868 5868 5868 5868 5867 5866 5866 5865 5863 5862 5861 5859 5857 5856 5855 5853 5852 5850 5848 5847 5845
5802 5804 5808 5813 5816 5818 5822 5824 5827 5830 5832 5835 5837 5841 5844 5846 5848 5850 5852 5854 5855 5857 5858 5858 5859 5859 5859 5859 5858 5857 5856 5855 5854 5852 5851 5850 5848 5847 5846 5844 5842 5841 5839 5838
5792 5794 5798 5803 5806 5808 5812 5815 5817 5819 5821 5824 5826 5829 5833 5835 5837 5840 5842 5844 5845 5847 5848 5849 5849 5849 5849 5849 5848 5848 5847 5846 5844 5843 5843 5841 5839 5838 5837 5836 5834 5833 5831 5830
5782 5785 5790 5792 5794 5798 5800 5803 5805 5807 5810 5813 5816 5818 5821 5824 5826 5829 5831 5833 5835 5836 5837 5838 5838 5838 5838 5839 5839 5839 5837 5834 5834 5834 5833 5831 5830 5829 5829 5827 5825 5824 5823 5822
5773 5776 5778 5781 5783 5785 5788 5791 5793 5796 5798 5801 5804 5807 5810 5812 5815 5817 5820 5822 5824 5825 5827 5827 5827 5827 5827 5828 5829 5828 5827 5826 5825 5824 5823 5822 5821 5821 5820 5818 5816 5815 5813 5812
5762 5764 5767 5769 5771 5773 5776 5778 5781 5784 5787 5789 5792 5795 5798 5800 5803 5805 5808 5809 5811 5813 5814 5815 5816 5816 5816 5817 5817 5817 5816 5815 5814 5814 5813 5812 5811 5811 5809 5808 5806 5805 5803 5802
5751 5753 5756 5758 5760 5762 5764 5766 5769 5771 5774 5776 5779 5782 5785 5787 5790 5791 5793 5795 5797 5799 5801 5802 5802 5804 5805 5805 5805 5805 5805 5803 5803 5803 5803 5802 5801 5800 5799 5798 5796 5795 5793 5791
5741 5743 5745 5748 5749 5751 5752 5754 5756 5759 5761 5764 5766 5769 5772 5774 5776 5778 5780 5782 5783 5785 5787 5788 5789 5790 5793 5794 5794 5794 5794 5793 5793 5792 5792 5792 5791 5790 5788 5787 5785 5784 5783 5781
5730 5732 5734 5736 5738 5739 5741 5742 5744 5746 5749 5751 5754 5756 5759 5761 5763 5764 5766 5768 5769 5771 5773 5774 5777 5779 5780 5781 5782 5782 5782 5783 5783 5783 5781 5781 5780 5779 5778 5777 5775 5773 5772 5770
5720 5722 5724 5726 5727 5729 5730 5732 5733 5734 5736 5738 5741 5743 5746 5748 5750 5751 5753 5754 5756 5757 5759 5761 5763 5766 5767 5768 5769 5770 5770 5771 5771 5771 5770 5769 5769 5768 5767 5766 5764 5762 5761 5759
5711 5712 5714 5716 5717 5719 5720 5721 5722 5724 5725 5727 5728 5730 5733 5735 5737 5739 5740 5741 5743 5745 5746 5749 5751 5753 5754 5756 5757 5758 5758 5759 5759 5758 5758 5758 5757 5756 5755 5754 5752 5750 5749 5748
5703 5704 5705 5707 5708 5709 5710 5711 5712 5713 5714 5716 5717 5718 5720 5723 5725 5726 5728 5730 5731 5733 5735 5736 5738 5740 5742 5744 5744 5746 5747 5747 5747 5747 5747 5746 5745 5744 5743 5742 5741 5739 5738 5737
5694 5696 5696 5698 5699 5700 5701 5701 5702 5703 5704 5705 5706 5707 5709 5711 5713 5715 5717 5719 5720 5722 5723 5724 5726 5727 5729 5731 5732 5734 5735 5735 5735 5735 5735 5735 5734 5733 5732 5731 5729 5728 5727 5726
5686 5687 5688 5690 5690 5691 5692 5692 5693 5694 5694 5695 5696 5698 5699 5702 5704 5706 5708 5709 5711 5712 5712 5713 5715 5716 5718 5719 5721 5722 5723 5724 5724 5723 5723 5723 5722 5721 5720 5719 5718 5716 5715 5714
5680 5681 5682 5682 5683 5683 5684 5685 5685 5686 5686 5687 5689 5690 5692 5693 5696 5697 5699 5700 5702 5703 5704 5704 5705 5707 5708 5709 5711 5712 5713 5713 5713 5712 5712 5711 5711 5710 5709 5708 5706 5705 5704 5702
5674 5675 5675 5676 5676 5677 5678 5678 5678 5679 5680 5681 5682 5683 5685 5686 5688 5689 5691 5692 5693 5694 5695 5696 5697 5697 5698 5699 5700 5701 5702 5702 5702 5701 5701 5700 5699 5699 5698 5697 5695 5694 5692 5690
5670 5670 5670 5671 5671 5672 5672 5672 5672 5673 5674 5675 5676 5677 5678 5680 5681 5682 5683 5684 5685 5686 5687 5687 5688 5688 5689 5690 5691 5691 5692 5692 5691 5691 5691 5690 5689 5688 5687 5685 5684 5683 5681 5679
5665 5665 5666 5666 5666 5667 5666 5666 5667 5667 5667 5668 5668 5669 5671 5672 5674 5675 5676 5677 5678 5678 5679 5680 5680 5680 5680 5681 5682 5682 5682 5682 5681 5681 5681 5680 5679 5678 5677 5675 5674 5672 5670 5668
5662 5662 5662 5662 5662 5661 5661 5661 5661 5661 5661 5661 5662 5663 5664 5666 5667 5668 5669 5670 5670 5671 5672 5672 5672 5672 5672 5672 5673 5673 5672 5672 5672 5672 5671 5670 5669 5668 5666 5665 5663 5662 5660 5658
5659 5658 5658 5658 5657 5657 5657 5657 5657 5656 5657 5657 5657 5658 5659 5660 5661 5661 5662 5663 5663 5664 5664 5664 5664 5665 5665 5665 5665 5664 5664 5664 5663 5663 5662 5661 5660 5659 5657 5656 5655 5653 5651 5649
5656 5656 5655 5654 5654 5654 5653 5653 5653 5653 5653 5653 5653 5653 5654 5655 5655 5656 5656 5656 5657 5657 5657 5657 5657 5657 5657 5657 5657 5657 5656 5656 5655 5654 5654 5652 5651 5650 5648 5647 5646 5644 5642 5640
5654 5653 5652 5652 5651 5651 5650 5650 5650 5649 5649 5649 5649 5649 5649 5650 5650 5651 5651 5651 5651 5651 5652 5651 5651 5650 5650 5650 5650 5649 5649 5648 5647 5646 5645 5644 5643 5642 5641 5639 5637 5635 5633 5631
5651 5650 5650 5649 5648 5647 5647 5646 5646 5646 5645 5645 5645 5645 5645 5645 5646 5646 5646 5646 5646 5646 5646 5645 5645 5644 5644 5644 5643 5643 5642 5641 5640 5640 5638 5637 5636 5634 5632 5630 5628 5626 5624 5622